Date,TemperatureHighF,TemperatureAvgF,TemperatureLowF,DewpointHighF,DewpointAvgF,DewpointLowF,HumidityHigh,HumidityAvg,HumidityLow,PressureMaxIn,PressureMinIn,WindSpeedMaxMPH,WindSpeedAvgMPH,GustSpeedMaxMPH,PrecipitationSumIn
2013-2-1,80.1,66.1,55.1,60.3,52.1,42.8,71,61,48,30.26,30.15,16,5,16,0.00
2013-2-2,83.0,68.4,59.2,60.3,53.9,45.8,74,61,45,30.25,30.10,11,3,11,0.00
2013-2-3,80.1,67.8,59.6,60.0,52.7,42.2,81,61,37,30.17,30.06,12,3,12,0.00
2013-2-4,78.7,66.5,56.5,59.6,51.7,44.3,74,59,45,30.14,30.01,8,2,8,0.00
2013-2-5,81.0,69.9,60.5,65.4,60.3,53.1,83,72,55,30.07,29.99,6,1,6,0.00
2013-2-6,84.1,73.3,65.2,68.8,64.3,60.8,89,74,56,30.10,30.01,8,2,8,0.00
2013-2-7,84.6,75.2,67.5,69.0,65.4,61.8,84,72,56,30.07,29.94,8,2,8,0.00
2013-2-8,86.6,76.0,69.1,72.6,68.2,60.8,90,77,62,30.04,29.92,14,4,14,0.00
2013-2-9,87.7,73.4,63.4,70.2,63.8,57.6,92,73,53,30.15,30.01,11,4,11,0.00
2013-2-10,84.6,74.1,69.5,66.9,63.1,60.1,76,69,51,30.23,30.13,14,5,14,0.00
2013-2-11,84.6,74.9,70.0,68.2,65.5,62.4,81,73,58,30.20,30.10,10,3,10,0.00
2013-2-12,85.3,76.1,69.5,71.6,68.1,64.9,88,77,60,30.11,29.96,12,2,12,0.00
2013-2-13,86.4,77.5,71.8,73.3,70.3,68.1,92,79,62,30.01,29.90,16,4,16,0.00
2013-2-14,86.6,75.6,62.8,74.6,69.0,59.9,93,81,60,30.02,29.86,20,5,20,0.81
2013-2-15,73.4,66.8,63.4,71.9,65.2,61.4,96,95,92,30.00,29.93,10,3,10,0.87
2013-2-16,78.5,66.4,56.5,67.5,59.2,47.3,97,80,45,30.09,29.88,16,6,16,0.02
2013-2-17,65.2,54.9,48.6,47.6,39.2,33.6,76,57,38,30.30,30.08,21,7,21,0.02
2013-2-18,73.3,61.5,49.5,57.2,48.8,38.4,72,64,50,30.30,30.19,14,5,14,0.00
2013-2-19,80.8,71.0,62.6,68.1,62.3,54.5,84,74,64,30.19,30.07,10,2,10,0.00
2013-2-20,83.3,74.3,67.5,69.8,66.5,64.0,90,77,60,30.10,29.99,9,3,9,0.00
2013-2-21,86.8,76.7,69.7,70.2,67.2,64.3,85,73,56,30.08,29.99,10,3,10,0.00
2013-2-22,86.6,77.4,72.7,72.3,69.9,67.2,88,78,62,30.09,29.99,12,4,12,0.00
2013-2-23,85.5,78.0,73.3,73.5,70.9,68.7,88,79,65,30.04,29.91,14,3,14,0.00
2013-2-24,89.1,78.9,72.9,75.4,71.4,68.8,94,79,57,29.98,29.88,8,2,8,0.01
2013-2-25,89.6,78.9,73.3,75.3,71.3,68.1,91,78,55,29.91,29.80,14,3,14,0.00
2013-2-26,88.6,80.1,75.8,73.6,72.1,70.7,87,77,60,29.90,29.78,20,6,20,0.00
2013-2-27,77.4,72.6,66.2,72.5,67.6,64.0,94,84,74,29.96,29.85,9,3,9,0.17
2013-2-28,76.0,67.0,60.7,64.1,58.1,52.8,94,74,59,30.01,29.89,10,3,10,0.00